Home > Weather > Ansbach > Past weeks

Flag for Germany Weather for the Past 2 Weeks in Ansbach, Bavaria, Germany

Now
41 °F

Passing clouds.


Feels Like: 35 °F
Forecast: 39 / 51 °F
Wind: 10 mph from Southwest

Location: Ansbach / Katterbach

Current Time: Feb 7, 2016 at 11:42:44 PM

Latest Report: Feb 7, 2016 at 10:58 PM


Visibility: N/A

Pressure: 29.91 "Hg

Humidity: 81%

Dew point: 36 °F

Location of AnsbachLocation

Historic Weather in Ansbach — Graph

°F

Ansbach Temperature Yesterday

Maximum temperature yesterday: 50 °F (at 1:58 PM)
Minimum temperature yesterday: 34 °F (at 4:58 AM)
Average temperature yesterday: 41 °F

High & Low Weather Summary for the Past Weeks

 TemperatureHumidityPressure
High55 °F (Jan 26, 2:58 PM)100% (Jan 23, 11:02 PM)30.70 "Hg (Jan 23, 11:02 PM)
Low31 °F (Jan 24, 6:58 AM)51% (Jan 27, 1:58 PM)29.68 "Hg (Feb 7, 12:58 PM)
Average41 °F87%30.23 "Hg
* Reported Jan 23 9:58 PM — Feb 7 9:58 PM, Ansbach, Weather by CustomWeather, © 2016

Note: Actual official high and low records may vary slightly from our data, if they occured in-between our weather recording intervals... More about our weather records

Advertising

Ansbach Weather History for the Previous 24 Hours

 ConditionsComfort  
Time TempWeatherWind HumidityBarometerVisibility
9:58 PM
Sun, Feb 7
41 °FPassing clouds.12 mph81%29.91 "HgN/A
8:58 PM41 °FPartly cloudy.7 mph81%29.90 "HgN/A
7:58 PM41 °FClear.8 mph81%29.88 "HgN/A
6:58 PM39 °FPassing clouds.7 mph87%29.87 "HgN/A
5:58 PM43 °FMostly cloudy.10 mph81%29.84 "HgN/A
4:58 PM45 °FOvercast.13 mph81%29.80 "HgN/A
3:58 PM45 °FPassing clouds.16 mph81%29.77 "HgN/A
2:58 PM48 °FPassing clouds.16 mph71%29.73 "HgN/A
1:58 PM48 °FScattered clouds.12 mph66%29.71 "HgN/A
12:58 PM48 °FSunny.5 mph62%29.68 "HgN/A
11:58 AM43 °FOvercast.3 mph76%29.70 "HgN/A
10:58 AM41 °FPassing clouds.7 mph81%29.72 "HgN/A
9:58 AM39 °FScattered clouds.5 mph75%29.72 "HgN/A
8:58 AM36 °FOvercast.6 mph87%29.75 "HgN/A
7:58 AM36 °FPartly sunny.8 mph87%29.76 "HgN/A
6:58 AM36 °FOvercast.9 mph87%29.75 "HgN/A
5:58 AM34 °FClear.7 mph93%29.77 "HgN/A
4:58 AM36 °FClear.10 mph93%29.79 "HgN/A
3:58 AM36 °FClear.5 mph93%29.80 "HgN/A
2:58 AM36 °FClear.8 mph93%29.80 "HgN/A
1:58 AM37 °FClear.6 mph93%29.81 "HgN/A
12:58 AM39 °FClear.8 mph87%29.82 "HgN/A
11:58 PM
Sat, Feb 6
39 °FClear.8 mph93%29.85 "HgN/A
Weather by CustomWeather, © 2016

See weather overviewHow to use our weather pages